Location: Home
(42.5358°N, 72.7383°W)
Time: 22:24:47
(UTC-04:00)

COSMOS 2251 DEB - Visible Passes

Search period start: 30 June 2022 00:00
Search period end: 10 July 2022 00:00
Orbit: 653 x 911 km, 74.0° (Epoch: 25 June)

Date Brightness Start Highest point End Pass type
(mag) Time Alt. Az. Time Alt. Az. Time Alt. Az.
30 Jun ? 01:46:56 10° N 01:52:15 34° ENE 01:57:18 10° SE visible
30 Jun ? 03:29:20 10° NW 03:34:40 37° W 03:37:51 20° SSW visible
01 Jul ? 01:14:32 10° N 01:19:13 24° NE 01:23:41 10° ESE visible
01 Jul ? 02:56:18 10° NNW 03:02:03 56° WSW 03:04:49 28° S visible
02 Jul ? 00:42:22 10° NNE 00:46:04 17° NE 00:49:39 10° E visible
02 Jul ? 02:23:26 10° NNW 02:29:19 85° WSW 02:31:51 34° SSE visible
02 Jul ? 04:09:09 10° WNW 04:10:37 11° W 04:12:05 10° WSW visible
03 Jul ? 00:10:47 10° NNE 00:12:49 12° NE 00:14:49 10° ENE visible
03 Jul ? 01:50:41 10° NNW 01:56:31 65° ENE 01:59:01 33° SE visible
03 Jul ? 03:34:31 10° NW 03:38:12 18° W 03:39:31 16° WSW visible
04 Jul ? 01:18:03 10° N 01:23:37 44° ENE 01:26:14 27° ESE visible
04 Jul ? 03:00:58 10° NW 03:05:42 27° W 03:06:45 25° WSW visible
05 Jul ? 00:45:31 10° N 00:50:37 30° ENE 00:53:30 19° ESE visible
05 Jul ? 02:27:45 10° NNW 02:33:08 41° WSW 02:34:02 38° SW visible
06 Jul ? 00:13:10 10° N 00:17:31 21° NE 00:20:50 13° E visible
06 Jul ? 01:54:46 10° NNW 02:00:28 63° WSW 02:01:21 54° SSW visible
06 Jul ? 23:41:07 10° NNE 23:44:19 15° NE 23:47:26 10° E visible
07 Jul ? 01:21:55 10° NNW 01:27:43 87° ENE 01:28:44 61° SSE visible
07 Jul ? 03:06:59 10° WNW 03:09:05 12° W 03:09:16 12° W visible
07 Jul ? 23:10:17 10° NE 23:11:03 10° NE 23:11:48 10° NE visible
08 Jul ? 00:49:10 10° NNW 00:54:52 58° ENE 00:56:09 46° ESE visible
08 Jul ? 02:32:46 10° NW 02:36:38 19° W 02:36:41 19° W visible
09 Jul ? 00:16:32 10° N 00:21:55 39° ENE 00:23:36 31° E visible
09 Jul ? 01:59:17 10° NW 02:04:07 29° W 02:04:08 29° W visible
09 Jul ? 23:44:04 10° N 23:48:53 27° ENE 23:51:05 21° E visible
